Tracking 30160 objects as of 13-Feb-2025
HD Live streaming from Space Station
objects crossing your sky now

DELTA 1 DEB

Track DELTA 1 DEB now!
10-day predictions


NORAD ID: 9003
Int'l Code: 1975-004CM
Perigee: 595.8 km
Apogee: 628.7 km
Inclination: 98.3 °
Period: 96.8 minutes
Semi major axis: 6983 km
RCS: 0.043 m2 (small)
Launch date: January 22, 1975
Source: United States (US)
Launch site: AIR FORCE WESTERN TEST RANGE (AFWTR)

Note: This is SATELLITE DEBRIS
Your satellite tracking list
Your tracking list is empty




NASA's NSSDC Master Catalog

Two Line Element Set (TLE):
1  9003U 75004CM  25044.17075915  .00005812  00000-0  64096-3 0  9992
2  9003  98.2545 199.1760 0023522  37.8071 322.4791 14.87707732616131
Source of the keplerian elements: AFSPC